Regional Weather Roundup
Issued by NWS

Home | Current Version | Previous Version | Text Only | Print | Product List | Glossary Off
Versions: 1 2 3 4 5 6 7 8 9 10 11 12 13 14 15 16 17 18 19 20 21 22 23 24 25 26 27 28 29 30 31 32 33 34 35 36 37 38 39 40 41 42 43 44 45 46 47 48 49 50

000
ASUS43 KBIS 242110
RWRND

NORTH DAKOTA REGIONAL WEATHER ROUNDUP
NATIONAL WEATHER SERVICE BISMARCK ND
400 PM CDT SUN JUL 24 2016

NOTE: "FAIR" INDICATES FEW OR NO CLOUDS BELOW 12,000 FEET WITH NO
SIGNIFICANT WEATHER AND/OR OBSTRUCTIONS TO VISIBILITY.


NDZ001>003-009>011-017-242200-
NORTHWEST NORTH DAKOTA

CITY           SKY/WX    TMP DP  RH WIND       PRES   REMARKS
WILLISTON      MOSUNNY   84  51  31 W3        30.02S
MINOT          SUNNY     83  55  38 NW17      29.99S
MINOT AFB      SUNNY     80  55  42 NW14G26   29.98S
$$

NDZ018>021-031>035-040>046-242200-
SOUTHWEST NORTH DAKOTA

CITY           SKY/WX    TMP DP  RH WIND       PRES   REMARKS
BISMARCK       SUNNY     85  54  34 NW18G25   30.03S
DICKINSON      SUNNY     81  49  32 VRB6      30.06F
GARRISON         N/A     80  58  46 NW15      30.03S
HETTINGER ARPT SUNNY     88  42  20 VRB5      30.08F
$$

NDZ004>008-012>016-024-026-027-054-242200-
NORTHEAST NORTH DAKOTA

CITY           SKY/WX    TMP DP  RH WIND       PRES   REMARKS
GRAND FORKS    PTSUNNY   81  63  54 NW16G26   29.89R
GRND FRKS AFB  PTSUNNY   79  61  53 NW13      29.91R
DEVILS LAKE    MOSUNNY   77  58  51 NW21G26   29.96R
$$

NDZ022-023-025-028>030-036>039-047>053-242200-
SOUTHEAST NORTH DAKOTA

CITY           SKY/WX    TMP DP  RH WIND       PRES   REMARKS
FARGO          MOSUNNY   82  58  43 NW21G28   29.92R
JAMESTOWN      SUNNY     79  56  45 NW23G31   29.99R
$$




USA.gov is the U.S. government's official web portal to all federal, state and local government web resources and services.